N181MJ LEZL-LPPR

Flight info

Callsign N181MJ
Flight time 1h 44m
Altitude 40000
Route SANTA M744 LASIB DCT ABLEG
Aircraft P180/L-SBDFGM3RWXY/LB1

Departure

Time 2026-03-28 04:30
Airport Seville Airport (LEZL)

Arrival

Time 2026-03-28 06:14
Airport Francisco de Sá Carneiro Airport (LPPR)
Time Latitude Longitude Altitude Speed Heading
2026-03-28 04:21 37.42111 -5.90359 88 ft 0 kts 90°
2026-03-28 04:23 37.42111 -5.90358 88 ft 0 kts 90°
2026-03-28 04:23 37.42111 -5.90357 88 ft 0 kts 90°
2026-03-28 04:23 37.42096 -5.90312 89 ft 9 kts 148°
2026-03-28 04:23 37.42049 -5.90304 88 ft 6 kts 179°
2026-03-28 04:24 37.42000 -5.90304 88 ft 8 kts 180°
2026-03-28 04:24 37.41984 -5.90304 89 ft 0 kts 181°
2026-03-28 04:24 37.41980 -5.90336 89 ft 8 kts 270°
2026-03-28 04:24 37.41979 -5.90432 88 ft 14 kts 270°
2026-03-28 04:25 37.41979 -5.90581 87 ft 20 kts 269°
2026-03-28 04:25 37.41977 -5.90765 86 ft 22 kts 269°
2026-03-28 04:25 37.41972 -5.90934 85 ft 17 kts 248°
2026-03-28 04:25 37.41912 -5.91068 84 ft 16 kts 243°
2026-03-28 04:26 37.41891 -5.91113 83 ft 0 kts 236°
2026-03-28 04:27 37.41882 -5.91130 83 ft 7 kts 238°
2026-03-28 04:28 37.41846 -5.91188 83 ft 7 kts 207°
2026-03-28 04:28 37.41791 -5.91167 87 ft 8 kts 115°
2026-03-28 04:28 37.41789 -5.91147 85 ft 0 kts 89°
2026-03-28 04:28 37.41789 -5.91145 86 ft 5 kts 88°
2026-03-28 04:29 37.41788 -5.90919 87 ft 44 kts 90°
2026-03-28 04:29 37.41790 -5.90231 91 ft 114 kts 90°
2026-03-28 04:29 37.41781 -5.89028 278 ft 150 kts 97°
2026-03-28 04:29 37.41715 -5.87765 678 ft 147 kts 99°
2026-03-28 04:30 37.41515 -5.86443 986 ft 159 kts 99°
2026-03-28 04:30 37.41288 -5.85046 1226 ft 170 kts 103°
2026-03-28 04:30 37.41255 -5.84877 1216 ft 173 kts 104°
2026-03-28 04:30 37.40896 -5.83801 1421 ft 160 kts 103°
2026-03-28 04:31 37.40874 -5.82483 2166 ft 151 kts 83°
2026-03-28 04:31 37.40997 -5.81215 2729 ft 145 kts 81°
2026-03-28 04:31 37.41116 -5.79948 3222 ft 146 kts 82°
2026-03-28 04:31 37.41297 -5.78696 3681 ft 145 kts 68°
2026-03-28 04:32 37.42036 -5.77958 4140 ft 144 kts
2026-03-28 04:32 37.43049 -5.78205 4461 ft 154 kts 352°
2026-03-28 04:32 37.44101 -5.78483 4836 ft 157 kts 341°
2026-03-28 04:32 37.45038 -5.79209 5207 ft 160 kts 323°
2026-03-28 04:33 37.45750 -5.80304 5558 ft 165 kts 301°
2026-03-28 04:33 37.46063 -5.81704 5905 ft 169 kts 276°
2026-03-28 04:33 37.45990 -5.83189 6246 ft 170 kts 268°
2026-03-28 04:33 37.46316 -5.84580 6550 ft 167 kts 305°
2026-03-28 04:34 37.46918 -5.85838 6852 ft 168 kts 301°
2026-03-28 04:34 37.47465 -5.87144 7152 ft 169 kts 301°
2026-03-28 04:34 37.48050 -5.88424 7437 ft 169 kts 303°
2026-03-28 04:34 37.48641 -5.89705 7715 ft 169 kts 303°
2026-03-28 04:35 37.49233 -5.90988 7984 ft 170 kts 303°
2026-03-28 04:35 37.49818 -5.92257 8242 ft 170 kts 303°
2026-03-28 04:35 37.50409 -5.93545 8495 ft 170 kts 303°
2026-03-28 04:35 37.51005 -5.94834 8741 ft 171 kts 303°
2026-03-28 04:36 37.51599 -5.96131 8977 ft 171 kts 303°
2026-03-28 04:36 37.52197 -5.97427 9255 ft 171 kts 304°
2026-03-28 04:36 37.52793 -5.98726 9514 ft 172 kts 304°
2026-03-28 04:36 37.53389 -6.00027 9769 ft 172 kts 304°
2026-03-28 04:37 37.53988 -6.01336 10065 ft 172 kts 304°
2026-03-28 04:37 37.54588 -6.02646 10316 ft 173 kts 304°
2026-03-28 04:37 37.55194 -6.03959 10557 ft 174 kts 304°
2026-03-28 04:37 37.55798 -6.05280 10789 ft 174 kts 304°
2026-03-28 04:38 37.56408 -6.06606 11004 ft 175 kts 304°
2026-03-28 04:38 37.57020 -6.07945 11204 ft 176 kts 303°
2026-03-28 04:38 37.57636 -6.09286 11408 ft 177 kts 304°
2026-03-28 04:38 37.58257 -6.10642 11557 ft 180 kts 304°
2026-03-28 04:39 37.58898 -6.12040 11586 ft 188 kts 304°
2026-03-28 04:39 37.59554 -6.13479 11665 ft 189 kts 304°
2026-03-28 04:39 37.60201 -6.14926 11760 ft 190 kts 303°
2026-03-28 04:39 37.60839 -6.16360 11847 ft 190 kts 303°
2026-03-28 04:40 37.61489 -6.17813 11933 ft 191 kts 303°
2026-03-28 04:40 37.62142 -6.19275 12018 ft 191 kts 303°
2026-03-28 04:40 37.62787 -6.20717 12098 ft 191 kts 303°
2026-03-28 04:40 37.63441 -6.22176 12171 ft 191 kts 303°
2026-03-28 04:41 37.64094 -6.23645 12244 ft 192 kts 303°
2026-03-28 04:41 37.64750 -6.25112 12327 ft 192 kts 303°
2026-03-28 04:41 37.65405 -6.26581 12398 ft 192 kts 303°
2026-03-28 04:41 37.66061 -6.28054 12469 ft 192 kts 303°
2026-03-28 04:42 37.66720 -6.29528 12531 ft 193 kts 303°
2026-03-28 04:42 37.67367 -6.30986 12595 ft 193 kts 303°
2026-03-28 04:42 37.68028 -6.32464 12653 ft 193 kts 303°
2026-03-28 04:43 37.69169 -6.35035 12751 ft 194 kts 303°
2026-03-28 04:43 37.69829 -6.36522 12806 ft 194 kts 303°
2026-03-28 04:43 37.70488 -6.38006 12857 ft 191 kts 303°
2026-03-28 04:43 37.71071 -6.39335 12837 ft 156 kts 303°
2026-03-28 04:44 37.71556 -6.40431 12798 ft 132 kts 305°
2026-03-28 04:44 37.71976 -6.41370 12745 ft 114 kts 304°
2026-03-28 04:44 37.72342 -6.42200 12620 ft 104 kts 307°
2026-03-28 04:44 37.72719 -6.43013 12353 ft 108 kts 305°
2026-03-28 04:45 37.73066 -6.43831 12178 ft 105 kts 306°
2026-03-28 04:45 37.73436 -6.44640 11952 ft 106 kts 306°
2026-03-28 04:45 37.73783 -6.45452 11751 ft 105 kts 307°
2026-03-28 04:45 37.74227 -6.46185 11667 ft 104 kts 338°
2026-03-28 04:46 37.74848 -6.46641 11752 ft 118 kts 304°
2026-03-28 04:46 37.74487 -6.47546 12037 ft 135 kts 199°
2026-03-28 04:46 37.73749 -6.48181 12295 ft 143 kts 248°
2026-03-28 04:46 37.73802 -6.49348 12800 ft 105 kts 283°
2026-03-28 04:47 37.73771 -6.50262 13037 ft 126 kts 271°
2026-03-28 04:47 37.73801 -6.51471 13067 ft 147 kts 292°
2026-03-28 04:47 37.74301 -6.52622 13256 ft 152 kts 311°
2026-03-28 04:47 37.74930 -6.53675 13647 ft 147 kts 311°
2026-03-28 04:48 37.75608 -6.54720 13758 ft 159 kts 316°
2026-03-28 04:48 37.76294 -6.55663 14339 ft 133 kts 318°
2026-03-28 04:48 37.76943 -6.56539 14528 ft 144 kts 318°
2026-03-28 04:48 37.77640 -6.57480 14769 ft 147 kts 317°
2026-03-28 04:49 37.78308 -6.58434 15098 ft 142 kts 316°
2026-03-28 04:49 37.78957 -6.59390 15330 ft 146 kts 315°
2026-03-28 04:49 37.79608 -6.60392 15565 ft 147 kts 314°
2026-03-28 04:49 37.80212 -6.61410 15797 ft 145 kts 309°
2026-03-28 04:50 37.80734 -6.62570 15955 ft 158 kts 301°
2026-03-28 04:50 37.81147 -6.63785 16476 ft 144 kts 296°
2026-03-28 04:50 37.81566 -6.65008 16585 ft 159 kts 297°
2026-03-28 04:50 37.81985 -6.66317 16796 ft 163 kts 303°
2026-03-28 04:51 37.82552 -6.67562 17074 ft 160 kts 304°
2026-03-28 04:51 37.82916 -6.68383 17294 ft 159 kts 303°
2026-03-28 04:51 37.42111 -5.90359 17394 ft 0 kts 90°
2026-03-28 04:55 37.42111 -5.90347 89 ft 4 kts 90°
2026-03-28 04:55 37.42078 -5.90304 88 ft 10 kts 171°
2026-03-28 04:55 37.42000 -5.90303 88 ft 7 kts 187°
2026-03-28 04:55 37.41979 -5.90366 88 ft 11 kts 270°
2026-03-28 04:56 37.41979 -5.90481 88 ft 15 kts 270°
2026-03-28 04:56 37.41978 -5.90631 87 ft 19 kts 269°
2026-03-28 04:56 37.41978 -5.90812 86 ft 22 kts 270°
2026-03-28 04:56 37.41977 -5.90920 85 ft 1 kts 268°
2026-03-28 04:57 37.41970 -5.90942 89 ft 5 kts 233°
2026-03-28 04:57 37.41931 -5.90991 83 ft 11 kts 247°
2026-03-28 04:57 37.41901 -5.91091 83 ft 14 kts 245°
2026-03-28 04:57 37.41837 -5.91189 84 ft 14 kts 194°
2026-03-28 04:58 37.41789 -5.91152 85 ft 8 kts 97°
2026-03-28 04:58 37.41788 -5.91141 86 ft 0 kts 91°
2026-03-28 04:58 37.41788 -5.91136 85 ft 10 kts 91°
2026-03-28 04:58 37.41788 -5.90658 89 ft 101 kts 90°
2026-03-28 04:59 37.41787 -5.89527 484 ft 142 kts 90°
2026-03-28 04:59 37.41762 -5.88175 1320 ft 166 kts 92°
2026-03-28 04:59 37.41665 -5.86653 2221 ft 182 kts 94°
2026-03-28 04:59 37.41562 -5.85033 3209 ft 184 kts 91°
2026-03-28 05:00 37.41502 -5.83451 4252 ft 180 kts 91°
2026-03-28 05:00 37.41456 -5.81872 5112 ft 175 kts 85°
2026-03-28 05:00 37.41826 -5.80557 6346 ft 150 kts 58°
2026-03-28 05:00 37.42530 -5.79580 7122 ft 155 kts 34°
2026-03-28 05:01 37.43530 -5.79061 7870 ft 158 kts 12°
2026-03-28 05:01 37.44613 -5.79112 8612 ft 161 kts 348°
2026-03-28 05:01 37.45612 -5.79757 9368 ft 165 kts 323°
2026-03-28 05:01 37.46308 -5.80923 10089 ft 172 kts 297°
2026-03-28 05:02 37.46514 -5.82421 10715 ft 179 kts 270°
2026-03-28 05:02 37.46271 -5.83976 11316 ft 181 kts 270°
2026-03-28 05:02 37.46641 -5.85432 11924 ft 176 kts 303°
2026-03-28 05:02 37.47273 -5.86759 12508 ft 178 kts 304°
2026-03-28 05:03 37.47900 -5.88110 13090 ft 180 kts 303°
2026-03-28 05:03 37.48535 -5.89477 13663 ft 182 kts 303°
2026-03-28 05:03 37.49174 -5.90867 14188 ft 184 kts 303°
2026-03-28 05:03 37.49821 -5.92268 14682 ft 185 kts 303°
2026-03-28 05:04 37.50469 -5.93680 15172 ft 186 kts 303°
2026-03-28 05:04 37.51120 -5.95097 15650 ft 188 kts 303°
2026-03-28 05:04 37.51776 -5.96523 16126 ft 189 kts 303°
2026-03-28 05:04 37.52438 -5.97957 16594 ft 190 kts 303°
2026-03-28 05:05 37.53100 -5.99402 17057 ft 191 kts 303°
2026-03-28 05:05 37.53771 -6.00854 17579 ft 192 kts 303°
2026-03-28 05:05 37.54433 -6.02301 18069 ft 193 kts 303°
2026-03-28 05:05 37.55108 -6.03770 18539 ft 195 kts 303°
2026-03-28 05:06 37.55786 -6.05254 18956 ft 196 kts 303°
2026-03-28 05:06 37.56469 -6.06739 19408 ft 196 kts 303°
2026-03-28 05:06 37.57150 -6.08237 19869 ft 197 kts 303°
2026-03-28 05:06 37.57839 -6.09735 20315 ft 198 kts 304°
2026-03-28 05:07 37.58529 -6.11240 20775 ft 199 kts 304°
2026-03-28 05:07 37.59223 -6.12761 21232 ft 201 kts 304°
2026-03-28 05:07 37.59920 -6.14292 21691 ft 202 kts 304°
2026-03-28 05:07 37.60608 -6.15845 22152 ft 204 kts 304°
2026-03-28 05:08 37.61307 -6.17408 22639 ft 205 kts 304°
2026-03-28 05:08 37.62009 -6.18981 23110 ft 207 kts 305°
2026-03-28 05:08 37.62719 -6.20565 23594 ft 208 kts 305°
2026-03-28 05:08 37.63434 -6.22164 24022 ft 210 kts 305°
2026-03-28 05:09 37.64150 -6.23775 24450 ft 211 kts 305°
2026-03-28 05:09 37.64861 -6.25365 24889 ft 211 kts 305°
2026-03-28 05:09 37.65584 -6.26983 25333 ft 212 kts 304°
2026-03-28 05:09 37.66308 -6.28611 25782 ft 213 kts 304°
2026-03-28 05:10 37.67038 -6.30243 26238 ft 214 kts 304°
2026-03-28 05:10 37.67766 -6.31886 26696 ft 215 kts 304°
2026-03-28 05:10 37.68502 -6.33535 27161 ft 216 kts 304°
2026-03-28 05:10 37.69238 -6.35195 27630 ft 217 kts 304°
2026-03-28 05:11 37.69981 -6.36864 28111 ft 218 kts 304°
2026-03-28 05:11 37.70721 -6.38536 28643 ft 217 kts 304°
2026-03-28 05:11 37.71455 -6.40194 29205 ft 215 kts 304°
2026-03-28 05:11 37.72188 -6.41837 29775 ft 214 kts 304°
2026-03-28 05:12 37.72912 -6.43477 30305 ft 213 kts 304°
2026-03-28 05:12 37.73634 -6.45107 30758 ft 212 kts 304°
2026-03-28 05:12 37.74353 -6.46733 31155 ft 212 kts 304°
2026-03-28 05:12 37.75070 -6.48352 31569 ft 211 kts 304°
2026-03-28 05:13 37.75785 -6.49965 31981 ft 210 kts 304°
2026-03-28 05:13 37.76497 -6.51575 32383 ft 210 kts 304°
2026-03-28 05:13 37.77207 -6.53179 32778 ft 209 kts 304°
2026-03-28 05:13 37.77676 -6.54244 33060 ft 208 kts 304°
2026-03-28 05:14 37.78373 -6.55827 33501 ft 205 kts 304°
2026-03-28 05:14 37.79296 -6.57911 34027 ft 204 kts 304°
2026-03-28 05:14 37.79988 -6.59479 34377 ft 204 kts 304°
2026-03-28 05:14 37.80678 -6.61047 34682 ft 204 kts 304°
2026-03-28 05:15 37.81369 -6.62612 34981 ft 204 kts 304°
2026-03-28 05:15 37.81835 -6.63672 35185 ft 204 kts 304°
2026-03-28 05:15 37.82525 -6.65237 35478 ft 204 kts 304°
2026-03-28 05:15 37.83215 -6.66803 35766 ft 204 kts 304°
2026-03-28 05:16 37.83903 -6.68371 36043 ft 204 kts 304°
2026-03-28 05:16 37.84601 -6.69953 36156 ft 212 kts 304°
2026-03-28 05:16 37.85331 -6.71604 36167 ft 223 kts 304°
2026-03-28 05:16 37.86103 -6.73366 36169 ft 234 kts 303°
2026-03-28 05:17 37.86910 -6.75205 36171 ft 244 kts 303°
2026-03-28 05:17 37.87747 -6.77115 36172 ft 252 kts 303°
2026-03-28 05:17 37.88612 -6.79089 36171 ft 260 kts 303°
2026-03-28 05:17 37.89504 -6.81122 36170 ft 267 kts 303°
2026-03-28 05:18 37.90414 -6.83203 36175 ft 273 kts 303°
2026-03-28 05:18 37.91347 -6.85336 36170 ft 280 kts 303°
2026-03-28 05:18 37.92302 -6.87516 36170 ft 285 kts 303°
2026-03-28 05:18 37.93271 -6.89736 36173 ft 290 kts 303°
2026-03-28 05:19 37.94254 -6.91989 36171 ft 294 kts 303°
2026-03-28 05:19 37.95241 -6.94247 36173 ft 298 kts 302°
2026-03-28 05:19 37.96251 -6.96564 36171 ft 303 kts 302°
2026-03-28 05:20 37.98313 -7.01297 36179 ft 309 kts 302°
2026-03-28 05:20 38.00407 -7.06113 36169 ft 314 kts 302°
2026-03-28 05:21 38.02229 -7.11193 36171 ft 323 kts 290°
2026-03-28 05:21 38.03422 -7.16697 36170 ft 323 kts 297°
2026-03-28 05:22 38.05907 -7.21364 36167 ft 319 kts 316°
2026-03-28 05:22 38.09484 -7.24641 36150 ft 318 kts 334°
2026-03-28 05:23 38.13657 -7.26555 36154 ft 320 kts 341°
2026-03-28 05:23 38.17870 -7.28399 36162 ft 321 kts 341°
2026-03-28 05:24 38.22101 -7.30229 36161 ft 321 kts 341°
2026-03-28 05:24 38.26312 -7.32062 36163 ft 322 kts 341°
2026-03-28 05:25 38.30560 -7.33911 36164 ft 323 kts 341°
2026-03-28 05:25 38.34808 -7.35762 36166 ft 323 kts 341°
2026-03-28 05:26 38.39064 -7.37620 36166 ft 323 kts 341°
2026-03-28 05:26 38.43319 -7.39476 36169 ft 323 kts 341°
2026-03-28 05:27 38.47578 -7.41342 36171 ft 324 kts 340°
2026-03-28 05:27 38.51844 -7.43209 36176 ft 324 kts 340°
2026-03-28 05:28 38.56107 -7.45079 36174 ft 324 kts 340°
2026-03-28 05:28 38.60340 -7.46937 36173 ft 324 kts 340°
2026-03-28 05:29 38.64606 -7.48815 36179 ft 324 kts 340°
2026-03-28 05:29 38.68875 -7.50692 36178 ft 324 kts 340°
2026-03-28 05:30 38.73145 -7.52575 36181 ft 324 kts 340°
2026-03-28 05:30 38.77410 -7.54457 36181 ft 324 kts 340°
2026-03-28 05:31 38.81679 -7.56344 36186 ft 324 kts 340°
2026-03-28 05:31 38.85944 -7.58226 36183 ft 325 kts 340°
2026-03-28 05:32 38.90200 -7.60114 36180 ft 325 kts 340°
2026-03-28 05:32 38.93789 -7.61704 36170 ft 326 kts 340°
2026-03-28 05:33 38.98772 -7.63920 36170 ft 326 kts 340°
2026-03-28 05:33 39.03074 -7.65830 36171 ft 326 kts 340°
2026-03-28 05:34 39.07345 -7.67732 36174 ft 326 kts 340°
2026-03-28 05:34 39.11638 -7.69646 36185 ft 327 kts 340°
2026-03-28 05:35 39.15929 -7.71563 36188 ft 326 kts 340°
2026-03-28 05:35 39.20222 -7.73482 36189 ft 326 kts 340°
2026-03-28 05:36 39.24511 -7.75400 36192 ft 326 kts 340°
2026-03-28 05:36 39.28798 -7.77322 36191 ft 326 kts 340°
2026-03-28 05:37 39.33082 -7.79245 36190 ft 326 kts 339°
2026-03-28 05:37 39.37365 -7.81170 36192 ft 326 kts 339°
2026-03-28 05:38 39.41648 -7.83097 36197 ft 326 kts 339°
2026-03-28 05:38 39.45928 -7.85023 36199 ft 326 kts 339°
2026-03-28 05:39 39.50206 -7.86952 36201 ft 326 kts 339°
2026-03-28 05:39 39.54453 -7.88873 36207 ft 326 kts 339°
2026-03-28 05:40 39.58735 -7.90809 36202 ft 325 kts 339°
2026-03-28 05:40 39.63010 -7.92749 36203 ft 325 kts 339°
2026-03-28 05:41 39.67287 -7.94683 36214 ft 325 kts 339°
2026-03-28 05:41 39.71554 -7.96621 36213 ft 325 kts 339°
2026-03-28 05:42 39.75821 -7.98562 36233 ft 325 kts 339°
2026-03-28 05:43 39.84353 -8.02448 36221 ft 324 kts 339°
2026-03-28 05:43 39.88610 -8.04392 36225 ft 324 kts 339°
2026-03-28 05:44 39.92839 -8.06323 36225 ft 323 kts 339°
2026-03-28 05:44 39.97088 -8.08269 36228 ft 323 kts 339°
2026-03-28 05:45 40.01337 -8.10215 36230 ft 324 kts 339°
2026-03-28 05:45 40.05581 -8.12162 36233 ft 323 kts 339°
2026-03-28 05:46 40.09836 -8.14121 36001 ft 329 kts 339°
2026-03-28 05:46 40.12025 -8.15127 35491 ft 336 kts 339°
2026-03-28 05:46 40.14216 -8.16135 34988 ft 340 kts 339°
2026-03-28 05:46 40.16455 -8.17167 34491 ft 343 kts 339°
2026-03-28 05:47 40.18715 -8.18211 33966 ft 345 kts 339°
2026-03-28 05:47 40.20992 -8.19256 33412 ft 348 kts 339°
2026-03-28 05:47 40.23276 -8.20313 32856 ft 349 kts 339°
2026-03-28 05:47 40.25574 -8.21376 32320 ft 351 kts 339°
2026-03-28 05:48 40.27883 -8.22441 31775 ft 352 kts 339°
2026-03-28 05:48 40.30195 -8.23507 31252 ft 351 kts 339°
2026-03-28 05:48 40.32493 -8.24576 30746 ft 350 kts 339°
2026-03-28 05:48 40.34782 -8.25640 30229 ft 349 kts 339°
2026-03-28 05:49 40.37074 -8.26694 29688 ft 347 kts 339°
2026-03-28 05:49 40.39332 -8.27739 29229 ft 343 kts 339°
2026-03-28 05:49 40.41565 -8.28784 28781 ft 339 kts 339°
2026-03-28 05:49 40.43778 -8.29809 28337 ft 336 kts 339°
2026-03-28 05:50 40.45971 -8.30829 27926 ft 332 kts 339°
2026-03-28 05:50 40.48102 -8.31818 27823 ft 321 kts 339°
2026-03-28 05:50 40.50170 -8.32783 27447 ft 319 kts 339°
2026-03-28 05:50 40.52258 -8.33753 27031 ft 318 kts 339°
2026-03-28 05:51 40.54345 -8.34727 26591 ft 317 kts 339°
2026-03-28 05:51 40.56422 -8.35697 26181 ft 316 kts 339°
2026-03-28 05:51 40.58494 -8.36662 25766 ft 315 kts 339°
2026-03-28 05:51 40.60556 -8.37629 25356 ft 314 kts 339°
2026-03-28 05:52 40.62618 -8.38589 24939 ft 313 kts 339°
2026-03-28 05:52 40.64670 -8.39546 24525 ft 312 kts 338°
2026-03-28 05:52 40.66715 -8.40508 24115 ft 311 kts 338°
2026-03-28 05:52 40.68747 -8.41457 23683 ft 310 kts 338°
2026-03-28 05:53 40.70770 -8.42406 23263 ft 307 kts 338°
2026-03-28 05:53 40.72638 -8.43699 22855 ft 302 kts 323°
2026-03-28 05:53 40.74189 -8.45539 22466 ft 299 kts 316°
2026-03-28 05:53 40.75669 -8.47449 22076 ft 297 kts 316°
2026-03-28 05:54 40.77149 -8.49336 21687 ft 295 kts 316°
2026-03-28 05:54 40.78599 -8.51189 21294 ft 293 kts 316°
2026-03-28 05:54 40.80060 -8.53061 20913 ft 292 kts 316°
2026-03-28 05:54 40.81516 -8.54923 20531 ft 291 kts 316°
2026-03-28 05:55 40.82968 -8.56776 20146 ft 290 kts 316°
2026-03-28 05:55 40.84415 -8.58624 19765 ft 289 kts 316°
2026-03-28 05:55 40.85857 -8.60463 19392 ft 288 kts 316°
2026-03-28 05:55 40.87298 -8.62300 19014 ft 288 kts 316°
2026-03-28 05:56 40.88737 -8.64133 18637 ft 287 kts 317°
2026-03-28 05:56 40.90174 -8.65962 18226 ft 286 kts 317°
2026-03-28 05:56 40.91608 -8.67782 17837 ft 285 kts 317°
2026-03-28 05:56 40.93034 -8.69592 17463 ft 283 kts 317°
2026-03-28 05:57 40.94454 -8.71394 16974 ft 285 kts 317°
2026-03-28 05:57 40.95892 -8.73216 16489 ft 286 kts 317°
2026-03-28 05:57 40.97327 -8.75028 16115 ft 284 kts 317°
2026-03-28 05:57 40.98746 -8.76821 15796 ft 280 kts 317°
2026-03-28 05:58 41.00151 -8.78595 15486 ft 277 kts 317°
2026-03-28 05:58 41.01545 -8.80352 15180 ft 275 kts 317°
2026-03-28 05:58 41.02910 -8.82070 14876 ft 274 kts 317°
2026-03-28 05:58 41.04288 -8.83806 14571 ft 273 kts 317°
2026-03-28 05:59 41.05661 -8.85534 14269 ft 272 kts 317°
2026-03-28 05:59 41.07034 -8.87259 13973 ft 271 kts 317°
2026-03-28 05:59 41.08402 -8.88975 13633 ft 271 kts 317°
2026-03-28 05:59 41.09768 -8.90687 13314 ft 270 kts 317°
2026-03-28 06:00 41.11135 -8.92399 12984 ft 270 kts 317°
2026-03-28 06:00 41.12498 -8.94106 12665 ft 269 kts 317°
2026-03-28 06:00 41.13860 -8.95812 12350 ft 269 kts 318°
2026-03-28 06:00 41.15218 -8.97509 12042 ft 268 kts 318°
2026-03-28 06:01 41.16577 -8.99204 11734 ft 268 kts 318°
2026-03-28 06:01 41.17931 -9.00895 11444 ft 267 kts 318°
2026-03-28 06:01 41.19283 -9.02581 11150 ft 267 kts 318°
2026-03-28 06:01 41.20180 -9.03692 10984 ft 265 kts 319°
2026-03-28 06:02 41.21783 -9.04813 10683 ft 264 kts 349°
2026-03-28 06:02 41.23583 -9.04505 10369 ft 267 kts 22°
2026-03-28 06:02 41.25105 -9.03061 9982 ft 271 kts 39°
2026-03-28 06:02 41.26557 -9.01456 9575 ft 271 kts 36°
2026-03-28 06:03 41.28138 -9.00103 9167 ft 270 kts 26°
2026-03-28 06:03 41.29870 -8.99163 8753 ft 268 kts 18°
2026-03-28 06:03 41.31625 -8.98380 8344 ft 264 kts 19°
2026-03-28 06:03 41.33311 -8.97440 7938 ft 261 kts 23°
2026-03-28 06:04 41.34961 -8.96467 7537 ft 258 kts 22°
2026-03-28 06:04 41.36628 -8.95591 7142 ft 256 kts 20°
2026-03-28 06:04 41.38263 -8.94741 6753 ft 254 kts 21°
2026-03-28 06:04 41.39893 -8.93829 6342 ft 253 kts 22°
2026-03-28 06:05 41.41503 -8.92926 5952 ft 251 kts 21°
2026-03-28 06:05 41.43123 -8.92063 5567 ft 250 kts 21°
2026-03-28 06:05 41.44729 -8.91201 5186 ft 246 kts 21°
2026-03-28 06:05 41.46275 -8.90340 4807 ft 237 kts 21°
2026-03-28 06:06 41.47776 -8.89520 4439 ft 228 kts 21°
2026-03-28 06:06 41.49168 -8.88590 4091 ft 222 kts 38°
2026-03-28 06:06 41.50022 -8.86949 4003 ft 209 kts 64°
2026-03-28 06:06 41.50366 -8.85128 3998 ft 197 kts 78°
2026-03-28 06:07 41.50623 -8.83344 3996 ft 201 kts 76°
2026-03-28 06:07 41.50913 -8.81493 3998 ft 205 kts 76°
2026-03-28 06:07 41.51191 -8.79632 4001 ft 205 kts 77°
2026-03-28 06:07 41.51412 -8.77756 3996 ft 206 kts 88°
2026-03-28 06:08 41.50934 -8.75965 3997 ft 210 kts 124°
2026-03-28 06:08 41.49772 -8.74743 3798 ft 221 kts 159°
2026-03-28 06:08 41.48235 -8.74692 3591 ft 227 kts 196°
2026-03-28 06:08 41.46851 -8.75696 3410 ft 228 kts 216°
2026-03-28 06:09 41.45498 -8.76763 3245 ft 226 kts 195°
2026-03-28 06:09 41.44027 -8.76569 3108 ft 213 kts 154°
2026-03-28 06:09 41.42846 -8.75559 2973 ft 191 kts 143°
2026-03-28 06:09 41.41805 -8.74612 2841 ft 173 kts 142°
2026-03-28 06:10 41.40847 -8.73751 2710 ft 160 kts 143°
2026-03-28 06:10 41.39995 -8.72879 2577 ft 149 kts 134°
2026-03-28 06:10 41.39206 -8.72023 2431 ft 147 kts 152°
2026-03-28 06:10 41.38177 -8.71715 2294 ft 160 kts 164°
2026-03-28 06:11 41.37066 -8.71356 2189 ft 169 kts 163°
2026-03-28 06:11 41.35963 -8.71054 1998 ft 148 kts 165°
2026-03-28 06:11 41.35017 -8.70812 1819 ft 134 kts 164°
2026-03-28 06:11 41.34109 -8.70571 1657 ft 130 kts 165°
2026-03-28 06:12 41.33240 -8.70344 1492 ft 125 kts 166°
2026-03-28 06:12 41.32386 -8.70117 1343 ft 125 kts 166°
2026-03-28 06:12 41.31525 -8.69888 1189 ft 127 kts 167°
2026-03-28 06:12 41.30659 -8.69658 1035 ft 127 kts 168°
2026-03-28 06:13 41.29794 -8.69433 882 ft 127 kts 169°
2026-03-28 06:13 41.28925 -8.69205 718 ft 128 kts 167°
2026-03-28 06:13 41.28071 -8.68980 589 ft 126 kts 169°
2026-03-28 06:13 41.27205 -8.68756 433 ft 126 kts 168°
2026-03-28 06:14 41.26350 -8.68523 286 ft 123 kts 168°
2026-03-28 06:14 41.25611 -8.68338 203 ft 90 kts 169°
2026-03-28 06:14 41.25084 -8.68197 215 ft 62 kts 169°
2026-03-28 06:14 41.24856 -8.68168 228 ft 18 kts 188°
2026-03-28 06:15 41.24746 -8.68201 231 ft 16 kts 197°
2026-03-28 06:15 41.24641 -8.68251 231 ft 17 kts 200°
2026-03-28 06:15 41.24524 -8.68293 233 ft 16 kts 181°
2026-03-28 06:15 41.24414 -8.68265 236 ft 17 kts 168°
2026-03-28 06:16 41.24285 -8.68233 236 ft 21 kts 169°
2026-03-28 06:16 41.24140 -8.68195 239 ft 22 kts 165°
2026-03-28 06:16 41.23985 -8.68153 240 ft 24 kts 168°
2026-03-28 06:16 41.23839 -8.68114 244 ft 21 kts 167°
2026-03-28 06:17 41.23709 -8.68077 250 ft 19 kts 169°
2026-03-28 06:17 41.23583 -8.68050 256 ft 17 kts 181°
2026-03-28 06:17 41.23529 -8.68193 250 ft 23 kts 264°
2026-03-28 06:17 41.23483 -8.68308 244 ft 0 kts 172°